29 Firms going Ex-Dividend next week, including Comcast, Cisco Systems and Mastercard

divid5

There are several well known large cap stocks going ex-dividend next week including the following four Top 100 Dividend Stocks: Comcast, Quest Diagnostics, Cisco Systems and Bristol-Myers Squibb.

Ex-dividend dates are important to dividend investors because one must own a stock on its ex-dividend date in order to be eligible to receive its next dividend. Any stock ranked by our team as a Top 100 Dividend Stock is tagged.

Company Name Stock Symol Ex-Div Date Pay Date Div Payout Stock Price Yield Market Cap
Agilent Technologies Inc. A 4/2/2018 4/25/2018 0.15 $65.42 0.91% 21.11
Bank of Nova Scotia BNS 4/2/2018 4/26/2018 0.64 $60.52 4.21% 70.96
Healthcare Trust of America, Inc. HTA 4/2/2018 4/10/2018 0.3 $25.77 4.73% 5.52
Intercontinental Hotels Group IHG 4/2/2018 5/11/2018 0.69 $59.76 2.33% 11.28
Itau Unibanco Banco Holding SA ITUB 4/2/2018 5/14/2018 0 $15.19 0.36% 92.16
Kimco Realty Corp KIM 4/2/2018 4/16/2018 0.28 $14.27 7.85% 6.2
LM Ericsson Telephone Co ADR ERIC 4/2/2018 0.13 $6.16 2.04% 20
Prudential plc PUK 4/2/2018 5/25/2018 0.91 $49.44 3.67% 62.27
Torchmark Corp TMK 4/2/2018 5/1/2018 0.16 $83.58 0.77% 9.63
top-100 Comcast CMCSA 4/3/2018 4/25/2018 0.19 $33.47 2.27% 159.35
top-100 Quest Diagnostics DGX 4/3/2018 4/18/2018 0.5 $98.90 2.02% 13.47
The Toro Company TTC 4/3/2018 4/18/2018 0.2 $61.61 1.30% 6.58
ABB Limited ABB 4/4/2018 5/15/2018 0.83 $23.31 3.54% 47.63
top-100 Cisco Systems CSCO 4/4/2018 4/25/2018 0.33 $41.38 3.19% 198.48
top-100 Bristol-Myers Squibb BMY 4/5/2018 5/1/2018 0.4 $62.77 2.55% 102.82
Erie Indemnity ERIE 4/5/2018 4/20/2018 0.84 $116.71 2.88% 6.13
Gentex Corp GNTX 4/5/2018 4/18/2018 0.11 $23.31 1.89% 6.52
Monsanto Company MON 4/5/2018 4/27/2018 0.54 $117.00 1.85% 51.46
NetApp Inc. NTAP 4/5/2018 4/25/2018 0.2 $60.63 1.32% 16.64
Smith & Nephew PLC SNN 4/5/2018 5/9/2018 0.44 $37.86 2.35% 15.89
Sysco Corp SYY 4/5/2018 4/27/2018 0.36 $59.44 2.42% 31.95
Banco Bilbao Vizcaya Argentaria, S.A. BBVA 4/6/2018 4/25/2018 0.19 $7.80 9.57% 51.37
Banco Bradesco S.A BBD 4/6/2018 5/9/2018 0 $10.71 0.00% 63.41
Elbit Systems Ltd. ESLT 4/6/2018 4/23/2018 0.44 $120.38 1.46% 5.02
Grupo Aval Acciones Y Valores SA AVAL 4/6/2018 4/16/2018 0.03 $8.56 4.04% 9.63
MasterCard MA 4/6/2018 5/9/2018 0.25 $172.47 0.58% 182.62
McCormick & Co. MKC 4/6/2018 4/23/2018 0.52 $104.03 2.00% 13.77
Roper Industries ROP 4/6/2018 4/23/2018 0.41 $276.64 0.60% 28.47
UDR Inc. UDR 4/6/2018 4/30/2018 0.32 $35.69 3.61% 9.92

39 Firms going Ex-Dividend next week, including Cardinal Health, Humana and Ventas

divid5

There are several well known large cap stocks going ex-dividend next week including the following four Top 100 Dividend Stocks: Cardinal Health, Realty Income, State Street and Ventas.

Ex-dividend dates are important to dividend investors because one must own a stock on its ex-dividend date in order to be eligible to receive its next dividend. Any stock ranked by our team as a Top 100 Dividend Stock is tagged.

Company Name Stock Symol Ex-Div Date Pay Date Div Payout Stock Price Yield Market Cap
BanColombia S.A. CIB 3/26/2018 4/12/2018 0.36 $43.80 2.88% 10.12
Vail Resorts, Inc. MTN 3/26/2018 4/11/2018 1.47 $223.42 2.63% 9.14
Canadian Imperial Bank of Commerce CM 3/27/2018 4/27/2018 1.33 $91.96 5.79% 39.24
DXC Technology Company DXC 3/27/2018 4/17/2018 0.18 $106.08 0.68% 29.31
Activision Blizzard, Inc. ATVI 3/28/2018 5/9/2018 0.34 $77.25 0.44% 52.24
Amdocs Limited DOX 3/28/2018 4/20/2018 0.25 $68.94 1.45% 9.43
AvalonBay Communities AVB 3/28/2018 4/16/2018 1.47 $161.54 3.64% 21.78
Camden Property Trust CPT 3/28/2018 4/17/2018 0.77 $82.73 3.72% 7.73
Curtiss-Wright Corp CW 3/28/2018 4/12/2018 0.15 $137.50 0.44% 5.99
Cypress Semiconductor CY 3/28/2018 4/19/2018 0.11 $18.62 2.36% 6.25
Danaher Corp DHR 3/28/2018 4/27/2018 0.16 $103.40 0.62% 67.44
DCT Inndustrial Trust DCT 3/28/2018 4/11/2018 0.36 $57.54 2.50% 5.36
Dentsply International XRAY 3/28/2018 4/13/2018 0.09 $58.42 0.60% 11.48
FMC Corp FMC 3/28/2018 4/19/2018 0.17 $83.88 0.79% 10.14
Franklin Resources BEN 3/28/2018 4/12/2018 0.23 $39.83 2.31% 20.64
Humana Inc. HUM 3/28/2018 4/27/2018 0.5 $268.21 0.75% 36.5
Illinois Tool Works ITW 3/28/2018 4/10/2018 0.78 $169.20 1.84% 53.66
Kilroy Realty Corp KRC 3/28/2018 4/18/2018 0.42 $70.45 2.41% 6.94
Mondelez International Inc MDLZ 3/28/2018 4/12/2018 0.22 $44.39 1.98% 60.81
Nucor Corporation NUE 3/28/2018 5/11/2018 0.38 $67.51 2.25% 18.98
Pioneer Natural Resources PXD 3/28/2018 4/12/2018 0.16 $171.19 0.19% 29.53
Steel Dynamics STLD 3/28/2018 4/13/2018 0.19 $46.60 1.61% 10.1
Stryker Corp SYK 3/28/2018 4/30/2018 0.47 $167.89 1.12% 59.41
TransCanada Corp TRP 3/28/2018 4/30/2018 0.69 $44.26 6.24% 35.43
Western Digital WDC 3/28/2018 4/16/2018 0.5 $103.30 1.94% 27.52
Air Products & Chemicals APD 3/29/2018 5/14/2018 1.1 $161.13 2.73% 34.84
top-100 Cardinal Health CAH 3/29/2018 4/15/2018 0.46 $62.01 2.98% 19.29
CubeSmart CUBE 3/29/2018 4/16/2018 0.3 $27.16 4.42% 5
Encompass Health Corporation EHC 3/29/2018 4/16/2018 0.25 $56.22 1.78% 5.46
Ingredion INGR 3/29/2018 4/25/2018 0.6 $126.74 1.89% 9.18
Lennox International LII 3/29/2018 4/13/2018 0.51 $203.84 1.00% 8.36
Liberty Property Trust LPT 3/29/2018 4/15/2018 0.4 $39.18 4.08% 5.85
New Residential Investment Corp NRZ 3/29/2018 4/27/2018 0.5 $16.66 12.00% 5.6
Raymond James Financial RJF 3/29/2018 4/16/2018 0.25 $88.57 1.13% 12.37
top-100 Realty Income Corp O 3/29/2018 4/13/2018 0.22 $49.62 5.31% 14.1
Republic Services RSG 3/29/2018 4/16/2018 0.34 $65.98 2.09% 21.77
SL Green Realty Corp SLG 3/29/2018 4/16/2018 0.81 $93.34 3.48% 8.78
top-100 State Street Corp STT 3/29/2018 4/16/2018 0.42 $100.72 1.67% 36.79
top-100 Ventas, Inc. VTR 3/29/2018 4/12/2018 0.79 $48.29 6.54% 17.19

What are Special Dividends?

Special dividends are one-time dividend payouts made by companies. While these payouts are often made by dividend paying stocks, there have been many instances where non-dividend paying companies paid a special dividend.

These one-time dividends range in amounts, some with very low amounts and some with very high amounts relative to the stock’s regular dividend. When a special dividend is announced, companies are careful to disclose that the dividend payout is special, and will have no impact on future payouts, or the stock’s annual yield.

Why Companies Pay Special Dividends

Companies pay special dividends for a variety of reasons. Typically, these payouts are used by cash-heavy companies who choose to reward investors instead of investing funds back into operations.

Special dividends are a way for companies to increase total dividends paid to investors, while eliminating the expectation of an increased dividend.

In addition, companies may also choose to pay a special dividend during a slow economic time, when investing in its business may not be ideal.

Capturing These Dividends

While dividends are meant to be ideal for long-term investors, many investors attempt to capture these payouts by buying the stock solely for the dividend, and then selling. While this is much harder said than done for regular dividends, it is even more difficult for special dividends.

With large dividend payouts, stock prices typically adjust so investors can not easily capture the dividend. For this reason, the dividend process for special dividends differs from traditional dividends. For example, the ex-dividend (which is typically the date an investor must own a stock by to be entiled to the dividend), comes after the dividend pay date.

The Costco Example

In late 2012, Costco (COST) offered investors an early Christmas present when it paid a $7.00 special dividend. Prior to this special dividend, Costco had done little to impress dividend investors, with a dividend yield around 1%.

However, in contrary to the explanation above on how companies use extra cash to pay special dividends, Costco actually borrowed $3 billion to pay its special dividend. In 2015, Costco followed up by offering another special dividend of $5.00.

While there is a chance that the company will pay another special dividend, the stock’s yield, which is just over 1%, remains unexciting for dividend investors.

Amount Pay Date Type
$0.45 11/18/2016 Regular
$0.45 8/26/2016 Regular
$0.45 5/13/2016 Regular
$0.40 2/26/2016 Regular
$0.40 11/27/2015 Regular
$0.40 8/28/2015 Regular
$0.40 5/15/2015 Regular
$5.00 2/27/2015 Special
$0.36 2/27/2015 Regular
$0.36 11/28/2014 Regular
$0.36 7/25/2014 Regular
$0.36 5/30/2014 Regular
$0.31 2/28/2014 Regular
$0.31 11/29/2013 Regular
$0.31 8/23/2013 Regular
$0.31 5/31/2013 Regular
$0.28 2/22/2013 Regular
$7.00 12/18/2012 Special
$0.28 11/30/2012 Regular
$0.28 8/24/2012 Regular
$0.28 6/8/2012 Regular
$0.24 2/24/2012 Regular

33 Firms going Ex-Dividend next week, including Philip Morris, Best Buy and Medtronic

divid5

There are several well known large cap stocks going ex-dividend next week including the following five Top 100 Dividend Stocks: Dr. Pepper Snapple Group, Seagate Technologies, Philip Morris, Medtronic and Novo Nordisk.

Ex-dividend dates are important to dividend investors because one must own a stock on its ex-dividend date in order to be eligible to receive its next dividend. Any stock ranked by our team as a Top 100 Dividend Stock is tagged.

Company Name Stock Symol Ex-Div Date Pay Date Div Payout Stock Price Yield Market Cap
Air Lease Corp AL 3/19/2018 4/6/2018 0.1 $43.80 0.91% 4.53
Ecola Inc. ECL 3/19/2018 4/16/2018 0.41 $136.78 1.20% 39.65
Emraer SA ADR(Sponsored) Repstg Pfd Shs ERJ 3/19/2018 4/18/2018 0.02 $27.20 0.00% 4.36
FMCTechnologies, Inc. FTI 3/19/2018 4/4/2018 0.13 $31.17 1.67% 13.87
Polyone Corporation POL 3/19/2018 4/5/2018 0.17 $44.55 1.57% 3.49
STMicroelectronics STM 3/19/2018 3/27/2018 0.05 $24.45 0.83% 21.17
Tiffany & Co. TIF 3/19/2018 4/10/2018 0.5 $100.42 1.99% 12.11
Cincinnati Financial CINF 3/20/2018 4/16/2018 0.53 $75.24 2.82% 12.3
top-100 Dr. Pepper Snapple Group DPS 3/20/2018 4/12/2018 0.58 $117.59 1.97% 21.06
Sare Corp SAR 3/20/2018 3/30/2018 0.14 $22.20 2.52% 6.08
top-100 Seagate Technology STX 3/20/2018 4/4/2018 0.63 $60.60 4.16% 17.19
Broadcom Limited AVGO 3/21/2018 3/29/2018 1.75 $266.00 2.63% 107.41
Best Buy BBY 3/21/2018 4/12/2018 0.45 $72.35 2.49% 20.21
Hyatt Hotels Corporation H 3/21/2018 3/29/2018 0.15 $80.21 0.75% 9.61
International Game Technology IGT 3/21/2018 4/5/2018 0.2 $29.72 2.69% 6.05
KAR Auction Services Inc KAR 3/21/2018 4/4/2018 0.35 $56.12 2.49% 7.49
Las Vegas Sands LVS 3/21/2018 3/30/2018 0.75 $75.75 3.96% 59.05
top-100 Philip Morris International PM 3/21/2018 4/11/2018 1.07 $107.30 3.99% 159.87
Total Systems Services TSS 3/21/2018 4/2/2018 0.13 $89.95 0.58% 16.18
est uy Y 3/21/2018 4/12/2018 0.45 $72.35 2.49% 20.37
Advance Auto Parts AAP 3/22/2018 4/6/2018 0.06 $118.41 0.20% 8.64
British Amer. Tobacco BTI 3/22/2018 5/14/2018 0.67 $58.61 4.60% 131.97
Canadian Pacific Railway Ltd. CP 3/22/2018 4/30/2018 0.45 $180.04 1.00% 25.57
Randgold Resources, Ltd. ADR GOLD 3/22/2018 5/18/2018 1.98 $84.80 2.33% 7.69
Hill-Rom Holdings HRC 3/22/2018 3/30/2018 0.2 $87.83 0.91% 5.74
top-100 Medtronic, Inc. MDT 3/22/2018 4/13/2018 0.46 $83.30 2.21% 109.45
Pembina Pipeline Corp. Ordinary Shares (Canada) PBA 3/22/2018 4/15/2018 0.18 $32.24 6.70% 15.6
Sempra Energy SRE 3/22/2018 4/15/2018 0.9 $109.75 3.26% 29.75
AMERCO UHAL 3/22/2018 4/6/2018 0.5 $336.95 0.00% 6.68
Vedanta Limited VEDL 3/22/2018 4/17/2018 1.28 $20.07 0.00% 17.33
Equity Residential EQR 3/23/2018 4/13/2018 0.54 $59.50 3.39% 23.04
International Flavors & Fragrances IFF 3/23/2018 4/6/2018 0.69 $142.05 1.94% 10.91
top-100 Novo Nordisk NVO 3/23/2018 4/3/2018 0.58 $50.99 1.14% 123.21

36 Firms going Ex-Dividend next week, including Kohl’s, Public Storage and Merck

divid5

There are several well known large cap stocks going ex-dividend next week including the following four Top 100 Dividend Stocks: Kohl’s, Public Storage, BCE Inc. and Merck.

Ex-dividend dates are important to dividend investors because one must own a stock on its ex-dividend date in order to be eligible to receive its next dividend. Any stock ranked by our team as a Top 100 Dividend Stock is tagged.

Company Name Stock Symbol Ex-Div Date Pay Date Div Payout Stock Price Yield Market Cap
Avnet, Inc. AVT 3/12/2018 3/27/2018 0.19 $43.40 1.75% 5.3
H&R Block HRB 3/12/2018 4/2/2018 0.24 $27.67 3.47% 5.63
Extended Stay America Inc STAY 3/12/2018 3/27/2018 0.21 $19.55 4.30% 3.79
Ameren Corp AEE 3/13/2018 3/29/2018 0.46 $53.86 3.40% 13.07
Anadarko Petroleum APC 3/13/2018 3/28/2018 0.25 $57.08 1.75% 30.96
Twenty-First Century Fox Inc FOXA 3/13/2018 4/18/2018 0.18 $37.18 0.97% 68.88
Federal Realty Investment Trust FRT 3/13/2018 4/16/2018 1 $117.19 3.41% 8.54
Hewlett Packard Enterprise Company HPE 3/13/2018 4/4/2018 0.07 $18.95 1.58% 29.96
Hewlett Packard HPQ 3/13/2018 4/4/2018 0.14 $23.95 2.33% 40.09
top-100 Kohl’s Corporation KSS 3/13/2018 3/28/2018 0.61 $62.19 3.92% 10.43
News Corp NWS 3/13/2018 4/18/2018 0.1 $16.40 1.22% 9.55
top-100 Public Storage PSA 3/13/2018 3/29/2018 2 $199.81 4.00% 34.73
PS Business Parks PSB 3/13/2018 3/29/2018 0.85 $114.47 2.97% 3.97
WR Berkley Corporation WRB 3/13/2018 4/2/2018 0.14 $70.50 0.79% 8.72
top-100 BCE Inc. BCE 3/14/2018 4/15/2018 0.76 $44.19 6.83 40.52
Broadridge Financial Solutions BR 3/14/2018 4/3/2018 0.36 $106.78 1.37% 12.59
BancorpSouth BXS 3/14/2018 4/2/2018 0.14 $32.80 1.71% 3.01
Comerica CMA 3/14/2018 4/1/2018 0.3 $100.34 1.20% 17.65
Devon Energy DVN 3/14/2018 3/29/2018 0.06 $32.39 0.74% 16.99
First Financial Bankshares FFIN 3/14/2018 4/2/2018 0.19 $47.90 1.59% 3.3
Garmin GRMN 3/14/2018 3/30/2018 0.51 $59.89 3.41% 11.42
Intercontinentalexchange Group Inc ICE 3/14/2018 3/29/2018 0.24 $74.30 1.29% 43.8
Legg Mason LM 3/14/2018 4/16/2018 0.28 $39.99 2.80% 3.48
top-100 Merck MRK 3/14/2018 4/6/2018 0.48 $54.76 3.51% 148.59
New Jersey Resources Corp. NJR 3/14/2018 4/2/2018 0.27 $39.05 2.79% 3.46
Shaw Communications SJR 3/14/2018 3/28/2018 0.1 $19.40 6.11% 9.9
Thermo Fisher Scientific Inc. TMO 3/14/2018 4/16/2018 0.17 $211.70 0.32% 86.39
UGI Corp UGI 3/14/2018 4/1/2018 0.25 $43.66 2.29% 7.59
Validus Holdings Ltd. VR 3/14/2018 3/29/2018 0.38 $67.67 2.25% 5.59
Bed Bath & Beyond Inc. BBBY 3/15/2018 4/17/2018 0.15 $21.75 2.76% 3.21
Fidelity National Financial FNF 3/15/2018 3/30/2018 0.3 $38.32 3.13% 10.65
Global Payments GPN 3/15/2018 3/30/2018 0.01 $114.53 0.03% 18.57
NASDAQ OMX Group NDAQ 3/15/2018 3/30/2018 0.38 $84.86 1.79% 14.35
Prosperity Bancshares PB 3/15/2018 4/2/2018 0.36 $77.51 1.86% 5.45
Reliance Steel RS 3/15/2018 3/30/2018 0.5 $92.06 2.17% 6.75
Western Union WU 3/15/2018 3/30/2018 0.19 $19.66 3.87% 9.19

63 Firms going Ex-Dividend next week, including BB&T, Southwest Airlines and General Motors

divid5

There are several well known large cap stocks going ex-dividend next week including the following five Top 100 Dividend Stocks: BB&T, Novartis, Occidental Petroleum, Traveler’s Co. and Eaton Corp.

Ex-dividend dates are important to dividend investors because one must own a stock on its ex-dividend date in order to be eligible to receive its next dividend. Any stock ranked by our team as a Top 100 Dividend Stock is tagged.

Company Name Stock Symbol Ex-Div Date Pay Date Div Payout Stock Price Yield Market Cap
top-100 BB&T BBT 3/5/2018 3/20/2018 0.04 $55.79 2.37% 42.58
Eversource Energy ES 3/5/2018 3/30/2018 0.51 $58.82 3.43% 18.2
Old Dominion Freight Line, Inc. Com. ODFL 3/5/2018 3/20/2018 0.13 $140.80 0.37% 11.41
Avery Dennison AVY 3/6/2018 3/21/2018 0.45 $120.11 1.50% 10.12
BlackRock, Inc. BLK 3/6/2018 3/22/2018 2.88 $563.97 2.04% 87.83
Halliburton Company HAL 3/6/2018 3/28/2018 0.18 $48.23 1.49% 40.28
Lear Corporation LEA 3/6/2018 3/26/2018 0.7 $194.01 1.44% 12.31
Lam Research Corporation LRCX 3/6/2018 3/28/2018 0.5 $198.43 1.01% 32.19
Southwest Airlines LUV 3/6/2018 3/28/2018 0.12 $59.50 0.84% 34.38
Nielsen Holdings N.V. NLSN 3/6/2018 3/21/2018 0.34 $33.79 4.02% 11.81
top-100 Novartis NVS 3/6/2018   2.61 $86.03 3.03% 196.8
Praxair PX 3/6/2018 3/15/2018 0.82 $155.83 2.12% 43.66
Royal Caribbean Cruises Ltd. RCL 3/6/2018 4/5/2018 0.6 $130.40 1.84% 26.05
Everest Re Group RE 3/6/2018 3/21/2018 1.3 $241.63 2.15% 10.34
Canadian National Railway Company CNI 3/7/2018 3/29/2018 0.46 $78.97 2.30% 55.31
Expedia EXPE 3/7/2018 3/28/2018 0.3 $106.62 1.13% 16.37
First American Financial FAF 3/7/2018 3/15/2018 0.38 $58.71 2.59% 6.31
Gildan Activewear GIL 3/7/2018 4/2/2018 0.11 $29.86 1.50% 6.28
Home Depot HD 3/7/2018 3/22/2018 1.03 $188.46 2.19% 210.75
Harris Corp HRS 3/7/2018 3/21/2018 0.57 $159.54 1.43% 18.23
MDU Resources Group MDU 3/7/2018 4/1/2018 0.2 $27.28 2.90% 5.22
Newmont Mining NEM 3/7/2018 3/22/2018 0.14 $39.32 1.42% 20.28
Public Service Enterprise Group PEG 3/7/2018 3/30/2018 0.45 $50.30 3.58% 24.2
Automatic Data Processing ADP 3/8/2018 4/1/2018 0.63 $117.90 2.14% 51.03
Avangrid, Inc. AGR 3/8/2018 4/2/2018 0.43 $49.48 3.49% 14.99
Anthem Inc ANTM 3/8/2018 3/23/2018 0.75 $238.22 1.26% 59.17
Becton Dickinson BDX 3/8/2018 3/30/2018 0.75 $225.03 1.33% 57.92
CBS Corporation CBS 3/8/2018 4/1/2018 0.18 $55.68 1.29% 20.51
Commerce Bankshares CBSH 3/8/2018 3/26/2018 0.23 $58.75 1.60% 6.3
CME Group CME 3/8/2018 3/26/2018 0.7 $166.90 1.68% 57.39
Columbia Sportswear COLM 3/8/2018 3/22/2018 0.22 $77.40 1.14% 5.45
First Horizon National Corp FHN 3/8/2018 4/2/2018 0.12 $19.66 2.44% 6.45
Genpact Limited G 3/8/2018 3/21/2018 0.07 $31.63 0.95% 6.05
Gaming and Leisure Properties Inc GLPI 3/8/2018 3/23/2018 0.63 $33.66 7.49% 7.06
General Motors Company GM 3/8/2018 3/23/2018 0.38 $41.54 3.66% 52.86
Genuine Parts GPC 3/8/2018 4/2/2018 0.72 $94.87 3.04% 13.47
Ingersoll-Rand Co. IR 3/8/2018 3/30/2018 0.45 $90.65 1.99% 21.49
The Kraft Heinz Company KHC 3/8/2018 3/23/2018 0.62 $69.74 3.58% 82.21
Kimberly-Clark KMB 3/8/2018 4/3/2018 1 $114.46 3.49% 39.79
Northern Trust NTRS 3/8/2018 4/1/2018 0.42 $108.84 1.54% 24.2
Owens Corning OC 3/8/2018 4/3/2018 0.21 $85.54 0.98% 8.95
Omnicom Group OMC 3/8/2018 4/9/2018 0.6 $78.10 3.07% 17.44
top-100 Occidental Petroleum OXY 3/8/2018 4/16/2018 0.77 $67.27 4.58% 50.7
Regions Financial Corp. RF 3/8/2018 4/2/2018 0.09 $19.80 1.82% 22.28
Shire plc SHPG 3/8/2018 4/24/2018 0.89 $126.32 1.41% 39.92
Tapestry Inc. TPR 3/8/2018 4/2/2018 0.34 $51.16 2.64% 14.56
top-100 Travelers Co. TRV 3/8/2018 3/30/2018 0.72 $142.58 2.02% 38.02
Telus Corp TU 3/8/2018 4/2/2018 0.51 $36.87 5.48% 21.53
UnitedHealth Group UNH 3/8/2018 3/20/2018 0.75 $234.06 1.28% 220.57
V.F. Corporation VFC 3/8/2018 3/19/2018 0.46 $76.05 2.42% 29.29
BWX Technologies Inc BWXT 3/9/2018 3/29/2018 0.16 $63.77 1.00% 6.34
Cigna CI 3/9/2018 4/10/2018 0.04 $193.06 0.02% 46.98
CRH Plc CRH 3/9/2018 5/11/2018 0.6 $33.71 3.57% 28.57
Carter’s, Inc. CRI 3/9/2018 3/23/2018 0.45 $116.73 1.54% 5.52
Dunkin Brands DNKN 3/9/2018 3/21/2018 0.35 $59.32 2.34% 5.37
Equifax EFX 3/9/2018 3/30/2018 0.39 $117.23 1.33% 14.52
top-100 Eaton Corp ETN 3/9/2018 3/23/2018 0.66 $79.70 3.31% 35.12
FedEx FDX 3/9/2018 4/2/2018 0.5 $241.31 0.83% 64.7
Gerdau S.A. GGB 3/9/2018 3/28/2018 0.01 $5.16 0.57% 8.39
Kansas City Southern KSU 3/9/2018 4/4/2018 0.36 $104.62 1.38% 10.75
Rogers Communications RCI 3/9/2018 4/3/2018 0.48 $45.28 4.24% 23.22
SCANA Corp. SCG 3/9/2018 4/1/2018 0.61 $39.65 6.18% 5.77
Textron Inc. TXT 3/9/2018 4/1/2018 0.02 $57.66 0.14% 15.23